[[{"header":{"parameterUnit":"m.s-1","parameterCategory":1,"la1":30.2991,"la2":30.254,"lo1":-89.0895,"lo2":-89.0444,"dy":0.0017,"dx":0.0017,"nx":28,"ny":28,"refTime":"2023-11-21T03:00:00:Z","depth":0,"parameterNumber":2,"parameterNumberName":"U-component_of_WINDS"},"data":[0,0,0,0,0,0,0,0,0,0,0,0,0,0,0,0,0,0,0,0,0,0,0,0,0,0,0,0,0,0,0,0,0,0,0,0,0,0,0,0,0,0,0,0,0,0,0,0,0,0,0,0,0,0,0,0,0,0,2.597,2.597,0,2.5949,2.5949,2.5948,2.5902,2.5901,2.59,2.5899,2.5877,2.5877,2.5877,0,0,0,0,0,0,0,0,0,0,0,0,0,2.597,2.597,2.597,2.597,2.5969,2.5949,2.5949,2.5948,2.5902,2.5901,2.59,2.5899,2.5877,2.5877,2.5877,0,0,0,0,0,0,0,0,0,0,0,0,0,2.5962,2.5971,2.597,2.5944,2.5941,2.5949,2.5949,2.5948,2.5903,2.5901,2.59,2.5898,2.5877,2.5877,2.5878,2.5908,0,0,2.5879,2.5879,0,0,0,0,0,0,0,0,2.5962,2.5962,2.5948,2.5946,2.5943,2.5927,2.5941,2.5935,2.5903,2.5917,2.5899,2.5898,2.5895,2.5893,2.5893,2.5907,2.5906,2.5879,2.5879,2.5879,2.5879,0,0,0,0,0,0,0,2.5963,2.5962,2.5961,2.5948,2.5945,2.5933,2.5931,2.5939,2.5914,2.5916,2.5912,2.5911,2.5893,2.5892,2.5892,2.5906,2.5879,2.5879,2.5879,2.588,2.5947,2.5949,0,0,0,0,0,0,2.5967,2.5963,2.5962,2.5961,2.5949,2.5935,2.5931,2.5933,2.5914,2.591,2.5912,2.5909,2.5892,2.5891,2.5891,2.5927,2.5879,2.588,2.588,2.5946,2.5948,2.5949,0,0,0,0,0,0,2.5968,2.5968,2.5963,2.5961,2.596,2.5936,2.5938,2.5934,2.5933,2.5911,2.5906,2.5916,2.5891,2.589,2.5905,2.5925,2.588,2.588,2.5944,2.5946,2.5949,2.5998,0,0,0,0,0,0,2.5968,2.5968,2.5979,2.5962,2.596,2.5977,2.594,2.5934,2.5934,2.5929,2.5913,2.5909,2.589,2.5905,2.5905,2.5925,2.5881,2.5942,2.5945,2.5948,2.5995,2.6002,2.6008,0,0,0,0,0,2.5968,2.5993,2.598,2.598,2.5973,2.5979,2.5978,2.5955,2.5936,2.5947,2.5933,2.591,2.5923,2.5906,2.5907,2.5927,2.5941,2.5944,2.5948,2.5992,2.6001,2.6008,0,0,0,0,0,0,2.6013,2.5991,2.5975,2.5996,2.599,2.5971,2.5984,2.5965,2.5964,2.5959,2.5931,2.5928,2.5947,2.5938,2.592,2.5957,2.5928,2.5932,2.5962,2.597,2.5977,2.5978,2.5881,0,0,0,0,0,2.6025,2.6032,2.6012,2.6032,2.603,2.6008,2.6009,2.5993,2.5985,2.5982,2.5969,2.5962,2.5965,2.5967,2.5968,2.5994,2.599,2.6008,2.6015,2.6021,2.6024,2.6038,2.6046,2.5961,2.5961,2.5961,0,0,2.6051,2.6039,2.6045,2.6041,2.6034,2.6041,2.6006,2.6014,2.602,2.5983,2.5996,2.5987,2.5978,2.5999,2.6007,2.5992,2.6047,2.6025,2.603,2.603,2.6043,2.6051,2.6058,2.5963,2.5963,2.5962,0,0,2.6101,2.6093,2.6109,2.6104,2.6094,2.608,2.6084,2.6069,2.6062,2.6075,2.6048,2.6054,2.6059,2.6054,2.6052,2.6103,2.6082,2.6105,2.614,2.6154,2.6161,2.6167,2.6186,2.6193,2.6108,2.6108,2.6108,0,2.6134,2.6144,2.612,2.6131,2.6131,2.6099,2.6116,2.6112,2.6103,2.6104,2.6087,2.6094,2.6086,2.6106,2.6119,2.6118,2.6122,2.6106,2.6162,2.6168,2.6173,2.6191,2.6198,2.6111,2.6111,2.6111,2.611,0,2.6185,2.6192,2.6207,2.6201,2.6202,2.6216,2.6195,2.6199,2.6183,2.6171,2.6186,2.6175,2.6174,2.6178,2.6162,2.6196,2.6187,2.6167,2.6137,2.6184,2.6201,2.6207,2.6115,2.6114,2.6113,2.6113,0,0,2.6261,2.6243,2.6249,2.6247,2.6235,2.624,2.6254,2.6254,2.6258,2.6254,2.6265,2.6271,2.6253,2.6251,2.6234,2.6247,2.629,2.6225,2.6225,2.6238,2.6328,2.6344,2.6352,2.6276,2.6278,2.6279,2.6329,0,2.6309,2.633,2.6311,2.6336,2.6344,2.6315,2.6327,2.6321,2.6311,2.6316,2.6304,2.6309,2.6284,2.6283,2.6295,2.6282,2.6308,2.6278,2.6286,2.6287,2.6289,2.636,2.6376,2.6425,2.6336,2.6337,2.6337,0,2.6366,2.6366,2.6393,2.6381,2.6384,2.6395,2.6394,2.6399,2.6393,2.6384,2.6384,2.6364,2.6377,2.6349,2.6367,2.6348,2.635,2.6345,2.6346,2.6346,2.6315,2.6362,2.644,2.6447,2.6347,2.6346,2.6346,0,2.642,2.6426,2.6444,2.6442,2.6429,2.6438,2.6433,2.6425,2.6427,2.6427,2.6428,2.6429,2.643,2.6431,2.6413,2.6394,2.6434,2.6404,2.6428,2.6428,2.6436,2.6436,2.6516,2.6438,2.6438,2.6438,2.6438,0,2.6475,2.6493,2.6468,2.6478,2.6498,2.6476,2.6496,2.6487,2.6482,2.649,2.6466,2.6475,2.645,2.6457,2.6443,2.646,2.6461,2.6454,2.645,2.6457,2.6458,2.6457,2.6453,2.644,2.644,2.6439,2.6439,0,2.6538,2.6522,2.6539,2.6526,2.6523,2.6538,2.6527,2.6536,2.6525,2.6537,2.6539,2.6521,2.6528,2.651,2.6514,2.6504,2.653,2.6521,2.6532,2.6529,2.6554,2.6552,2.6636,2.6646,2.6563,2.6564,2.6564,0,2.6574,2.6587,2.6576,2.6581,2.6577,2.6585,2.6587,2.6566,2.657,2.6565,2.6576,2.6581,2.6583,2.6596,2.6583,2.6586,2.6577,2.6606,2.6577,2.6584,2.6578,2.6577,2.6579,2.6612,2.6613,2.6614,2.6615,0,2.664,2.6632,2.6636,2.6639,2.6643,2.6643,2.6642,2.6647,2.6626,2.6631,2.6638,2.664,2.6645,2.6651,2.6652,2.6647,2.6627,2.6624,2.663,2.6636,2.6643,2.664,2.6549,2.6622,2.6621,2.6621,2.662,2.662,2.6691,2.6702,2.6696,2.6702,2.67,2.67,2.6709,2.6699,2.6705,2.6708,2.6695,2.6706,2.6701,2.67,2.6698,2.6706,2.6692,2.67,2.6702,2.6705,2.6709,2.6642,2.6706,2.6705,2.6705,2.6705,2.6705,0,2.6756,2.6752,2.6758,2.6758,2.6763,2.6745,2.6744,2.6749,2.6759,2.6756,2.676,2.6769,2.6775,2.6764,2.6768,2.6777,2.6768,2.6778,2.6777,2.6777,2.672,2.6715,2.6785,2.6785,2.6785,2.6785,2.6785,2.6785,2.6791,2.6808,2.68,2.6817,2.6812,2.6822,2.6823,2.6824,2.6822,2.6833,2.6838,2.6831,2.6825,2.6829,2.6834,2.6831,2.6834,2.6847,2.6841,2.6788,2.6781,2.6773,2.6768,2.6848,2.6848,2.6897,2.6897,2.6898]},{"header":{"parameterUnit":"m.s-1","parameterCategory":1,"la1":30.2991,"la2":30.254,"lo1":-89.0895,"lo2":-89.0444,"dy":0.0017,"dx":0.0017,"nx":28,"ny":28,"refTime":"2023-11-21T03:00:00:Z","depth":0,"parameterNumber":3,"parameterNumberName":"V-component_of_WINDS"},"data":[0,0,0,0,0,0,0,0,0,0,0,0,0,0,0,0,0,0,0,0,0,0,0,0,0,0,0,0,0,0,0,0,0,0,0,0,0,0,0,0,0,0,0,0,0,0,0,0,0,0,0,0,0,0,0,0,0,0,-5.0774,-5.0775,0,-5.0838,-5.0838,-5.0839,-5.0794,-5.0792,-5.079,-5.0788,-5.0852,-5.0855,-5.0859,0,0,0,0,0,0,0,0,0,0,0,0,0,-5.0615,-5.0618,-5.0774,-5.0775,-5.0776,-5.0837,-5.0838,-5.0839,-5.0794,-5.0792,-5.079,-5.0787,-5.0851,-5.0855,-5.0859,0,0,0,0,0,0,0,0,0,0,0,0,0,-5.0682,-5.0619,-5.0774,-5.0761,-5.076,-5.0837,-5.0838,-5.0839,-5.0795,-5.0792,-5.0789,-5.0786,-5.0849,-5.0854,-5.086,-5.0953,0,0,-5.0876,-5.0878,0,0,0,0,0,0,0,0,-5.0678,-5.0688,-5.0762,-5.0762,-5.0762,-5.0805,-5.0806,-5.0877,-5.0796,-5.0782,-5.0788,-5.0785,-5.0839,-5.0845,-5.0863,-5.0956,-5.0958,-5.0876,-5.088,-5.0882,-5.0883,0,0,0,0,0,0,0,-5.0674,-5.0685,-5.0799,-5.0763,-5.0763,-5.0752,-5.0758,-5.0819,-5.0826,-5.0783,-5.078,-5.0788,-5.0838,-5.0858,-5.0864,-5.0959,-5.0876,-5.0881,-5.0884,-5.0886,-5.1134,-5.1137,0,0,0,0,0,0,-5.067,-5.0681,-5.0797,-5.0801,-5.0712,-5.0757,-5.0764,-5.0794,-5.0825,-5.0827,-5.079,-5.0786,-5.085,-5.0858,-5.0866,-5.0979,-5.0882,-5.0887,-5.089,-5.1131,-5.1135,-5.1138,0,0,0,0,0,0,-5.0667,-5.0681,-5.0795,-5.0741,-5.0754,-5.0763,-5.0797,-5.0797,-5.0817,-5.0831,-5.0832,-5.081,-5.0848,-5.0859,-5.0932,-5.098,-5.0889,-5.0894,-5.1127,-5.1132,-5.1137,-5.1204,0,0,0,0,0,0,-5.0663,-5.068,-5.0715,-5.0742,-5.0757,-5.086,-5.08,-5.08,-5.0826,-5.0821,-5.0849,-5.0851,-5.0847,-5.0924,-5.0937,-5.0986,-5.0898,-5.1122,-5.1129,-5.1135,-5.1197,-5.121,-5.1222,0,0,0,0,0,-5.0657,-5.0731,-5.0717,-5.0731,-5.0801,-5.0862,-5.0871,-5.0865,-5.083,-5.0866,-5.0876,-5.085,-5.0973,-5.0932,-5.0947,-5.0997,-5.1119,-5.1127,-5.1135,-5.1192,-5.1208,-5.1221,0,0,0,0,0,0,-5.0709,-5.0734,-5.0719,-5.0803,-5.0831,-5.0855,-5.0899,-5.0882,-5.0919,-5.0912,-5.0902,-5.0909,-5.0987,-5.0999,-5.0954,-5.109,-5.1041,-5.1052,-5.1079,-5.1095,-5.1107,-5.1102,-5.0903,0,0,0,0,0,-5.073,-5.0778,-5.0797,-5.0869,-5.0884,-5.089,-5.0916,-5.0909,-5.0937,-5.0948,-5.0963,-5.0991,-5.1037,-5.1066,-5.1108,-5.1199,-5.1205,-5.1241,-5.1253,-5.1263,-5.1273,-5.1324,-5.1341,-5.1163,-5.1163,-5.1163,0,0,-5.0774,-5.0794,-5.0824,-5.088,-5.0901,-5.0951,-5.09,-5.0954,-5.0991,-5.0956,-5.1027,-5.104,-5.107,-5.1154,-5.1191,-5.1166,-5.1324,-5.1273,-5.1281,-5.1285,-5.1333,-5.135,-5.1365,-5.1169,-5.1168,-5.1167,0,0,-5.088,-5.09,-5.0963,-5.0986,-5.1018,-5.1022,-5.1037,-5.1064,-5.1071,-5.1142,-5.1118,-5.1162,-5.1239,-5.1263,-5.1285,-5.1404,-5.1383,-5.1418,-5.1482,-5.1532,-5.1546,-5.1558,-5.1602,-5.1618,-5.1427,-5.1428,-5.1428,0,-5.0931,-5.1005,-5.0998,-5.1055,-5.1081,-5.1054,-5.1119,-5.114,-5.1185,-5.1204,-5.1176,-5.1274,-5.1293,-5.1382,-5.1412,-5.143,-5.1448,-5.1414,-5.1544,-5.1557,-5.1568,-5.161,-5.1626,-5.1432,-5.1431,-5.1431,-5.143,0,-5.1067,-5.1119,-5.1167,-5.1212,-5.1243,-5.1304,-5.1307,-5.1339,-5.133,-5.1337,-5.1411,-5.1433,-5.148,-5.1501,-5.1492,-5.159,-5.1574,-5.1546,-5.1495,-5.1589,-5.1628,-5.1644,-5.1438,-5.1436,-5.1435,-5.1434,0,0,-5.1206,-5.1248,-5.1266,-5.1287,-5.1322,-5.1362,-5.1423,-5.147,-5.1499,-5.1531,-5.1582,-5.165,-5.1625,-5.165,-5.1644,-5.1687,-5.1782,-5.1654,-5.1654,-5.1678,-5.1894,-5.1915,-5.1934,-5.1768,-5.1771,-5.1774,-5.1892,0,-5.1315,-5.142,-5.1417,-5.1515,-5.1564,-5.154,-5.1593,-5.1621,-5.1629,-5.1672,-5.1681,-5.173,-5.1692,-5.1708,-5.175,-5.1762,-5.1825,-5.1753,-5.1817,-5.1819,-5.181,-5.1954,-5.1976,-5.2086,-5.1907,-5.1909,-5.1911,0,-5.1456,-5.1495,-5.1598,-5.1629,-5.1649,-5.1697,-5.1741,-5.1782,-5.1814,-5.1817,-5.1847,-5.1834,-5.1897,-5.1845,-5.1932,-5.1883,-5.1909,-5.1918,-5.1923,-5.1928,-5.1871,-5.1965,-5.2121,-5.2138,-5.1935,-5.1933,-5.1931,0,-5.1549,-5.1626,-5.1699,-5.1718,-5.1754,-5.1789,-5.1806,-5.1834,-5.1864,-5.1902,-5.1922,-5.1967,-5.1992,-5.2027,-5.2028,-5.199,-5.2116,-5.2064,-5.2121,-5.2121,-5.2148,-5.2147,-5.2312,-5.2164,-5.2164,-5.2164,-5.2163,0,-5.1671,-5.1736,-5.1742,-5.1786,-5.1859,-5.1855,-5.1927,-5.194,-5.1967,-5.2014,-5.1995,-5.2041,-5.2038,-5.2084,-5.2085,-5.2157,-5.2168,-5.2173,-5.2173,-5.2176,-5.2175,-5.2193,-5.2185,-5.2168,-5.2167,-5.2166,-5.2165,0,-5.1787,-5.1793,-5.1871,-5.19,-5.1909,-5.1961,-5.1986,-5.203,-5.2037,-5.2098,-5.2112,-5.2124,-5.2178,-5.2182,-5.2243,-5.2244,-5.2332,-5.2323,-5.2322,-5.2321,-5.2378,-5.2373,-5.2561,-5.2586,-5.2421,-5.2423,-5.2424,0,-5.1864,-5.1914,-5.1949,-5.198,-5.2,-5.2049,-5.208,-5.2078,-5.2111,-5.2152,-5.2191,-5.2243,-5.2284,-5.2371,-5.2386,-5.2433,-5.2426,-5.2488,-5.2432,-5.2434,-5.2428,-5.2425,-5.2431,-5.2499,-5.2501,-5.2502,-5.2503,0,-5.2003,-5.2004,-5.2049,-5.2096,-5.2133,-5.217,-5.2204,-5.223,-5.2233,-5.2271,-5.2326,-5.2358,-5.2422,-5.2475,-5.2522,-5.2539,-5.2523,-5.2521,-5.2537,-5.254,-5.2538,-5.2542,-5.2353,-5.2517,-5.2515,-5.2514,-5.2514,-5.2513,-5.2103,-5.2146,-5.2179,-5.223,-5.2256,-5.2289,-5.2332,-5.2346,-5.2392,-5.2444,-5.2441,-5.2502,-5.2535,-5.2596,-5.2618,-5.2667,-5.2646,-5.2668,-5.2674,-5.268,-5.2687,-5.2531,-5.2675,-5.2675,-5.2674,-5.2674,-5.2674,0,-5.2241,-5.2261,-5.2308,-5.2358,-5.2399,-5.238,-5.2417,-5.2453,-5.2507,-5.2539,-5.2581,-5.2646,-5.2697,-5.2717,-5.2767,-5.2803,-5.2797,-5.2816,-5.2814,-5.2819,-5.2702,-5.2684,-5.282,-5.282,-5.282,-5.282,-5.282,-5.282,-5.2318,-5.2392,-5.2397,-5.2485,-5.2504,-5.2565,-5.2588,-5.2619,-5.2645,-5.2718,-5.2761,-5.2774,-5.2802,-5.2854,-5.2901,-5.2906,-5.2926,-5.2949,-5.295,-5.2841,-5.2826,-5.2812,-5.2795,-5.2953,-5.2953,-5.3063,-5.3064,-5.3065]}]]